Window Rock, AZ

6:40 PM MST on February 25, 2017 (GMT -0700)
Window Rock

Weather History for KRQE - November, 2012

Change the Weather History Date:

Thursday, November 8, 2012

  Actual Average Record
Temperature  
Mean Temperature 45 °F -  
Max Temperature 63 °F 56 °F 72 °F (2006)
Min Temperature 27 °F 28 °F 7 °F (1945)
Degree Days  
Heating Degree Days 20    
Moisture  
Dew Point 16 °F    
Average Humidity 35    
Maximum Humidity 82    
Minimum Humidity 11    
Precipitation  
Precipitation 0.02 in - - ()
Sea Level Pressure  
Sea Level Pressure 29.93 in    
Wind  
Wind Speed 5 mph (SW)    
Max Wind Speed 21 mph    
Max Gust Speed 29 mph    
Visibility 10 miles    
Events Rain    
Averages and records for this station are not official NWS values.
T = Trace of Precipitation, MM = Missing Value Source: NWS Daily Summary

Daily Weather History Graph

Daily Weather History Graph

Search for Another Location

Airport or City:

Trip Planner

Search our weather history database for the weather conditions in past years. The results will help you decide how hot, cold, wet, or windy it might be!

Date:

Astronomy

Nov. 08, 2012 Rise Set
Actual Time 6:45 AM MST 5:14 PM MST
Civil Twilight 6:18 AM MST 5:40 PM MST
Nautical Twilight 5:48 AM MST 6:11 PM MST
Astronomical Twilight 5:18 AM MST 6:41 PM MST
Moon 12:55 AM MST (11/8) 1:46 PM MST (11/8)
Length of Visible Light 11h 22m
Length of Day
10h 28m
Waning Crescent, 32% of the Moon is Illuminated
Nov 8
Waning Crescent
Nov 13
New
Nov 20
First Quarter
Nov 28
Full
Dec 6
Last Quarter

Hourly Weather History & Observations

Time (MST) Temp. Windchill Dew Point Humidity Pressure Visibility Wind Dir Wind Speed Gust Speed Precip Events Conditions
12:53 AM 30.9 °F - 9.0 °F 40% 29.97 in 10.0 mi Calm Calm - N/A   Clear
1:53 AM 30.9 °F - 10.0 °F 42% 29.97 in 10.0 mi Calm Calm - N/A   Clear
2:53 AM 28.9 °F - 10.0 °F 45% 29.96 in 10.0 mi Calm Calm - N/A   Clear
3:53 AM 27.0 °F - 10.0 °F 49% 29.97 in 10.0 mi Calm Calm - N/A   Clear
4:53 AM 27.0 °F - 10.0 °F 49% 29.99 in 10.0 mi Calm Calm - N/A   Clear
5:53 AM 28.0 °F - 10.9 °F 49% 30.01 in 10.0 mi Calm Calm - N/A   Clear
6:53 AM 27.0 °F - 10.0 °F 49% 30.06 in 10.0 mi Calm Calm - N/A   Partly Cloudy
7:53 AM 36.0 °F - 12.0 °F 37% 30.04 in 10.0 mi Calm Calm - N/A   Clear
8:53 AM 45.0 °F - 17.1 °F 33% 30.01 in 10.0 mi Calm Calm - N/A   Clear
9:53 AM 53.1 °F - 19.0 °F 26% 29.97 in 10.0 mi South 8.1 mph - N/A   Clear
10:53 AM 60.1 °F - 15.1 °F 17% 29.94 in 10.0 mi SW 18.4 mph 26.5 mph N/A   Clear
11:53 AM 63.0 °F - 10.9 °F 13% 29.90 in 10.0 mi SW 20.7 mph 26.5 mph N/A   Clear
12:53 PM 63.0 °F - 8.1 °F 11% 29.88 in 10.0 mi SW 17.3 mph 28.8 mph N/A   Clear
1:53 PM 63.0 °F - 10.0 °F 13% 29.87 in 10.0 mi WSW 19.6 mph 26.5 mph N/A   Clear
2:53 PM 63.0 °F - 10.0 °F 13% 29.86 in 10.0 mi WSW 17.3 mph 27.6 mph N/A   Clear
3:53 PM 62.1 °F - 10.9 °F 13% 29.86 in 10.0 mi SW 17.3 mph 25.3 mph N/A   Clear
4:53 PM 59.0 °F - 12.9 °F 16% 29.87 in 10.0 mi SW 12.7 mph 19.6 mph N/A   Clear
5:53 PM 48.9 °F - 12.9 °F 24% 29.91 in 10.0 mi SSW 6.9 mph - N/A   Clear
6:53 PM 48.9 °F - 14.0 °F 25% 29.94 in 10.0 mi SSW 5.8 mph - N/A   Mostly Cloudy
7:53 PM 53.1 °F - 24.1 °F 32% 29.89 in 10.0 mi WSW 16.1 mph 26.5 mph N/A   Overcast
8:53 PM 50.0 °F - 28.0 °F 43% 29.86 in 10.0 mi South 4.6 mph - N/A   Mostly Cloudy
9:53 PM 50.0 °F - 30.0 °F 46% 29.83 in 10.0 mi SSW 10.4 mph 16.1 mph N/A   Overcast
10:53 PM 46.0 °F 39.9 °F 37.9 °F 73% 29.83 in 10.0 mi SW 13.8 mph 20.7 mph 0.00 in Rain Light Rain
11:53 PM 44.1 °F 42.5 °F 39.0 °F 82% 29.82 in 10.0 mi SSW 3.5 mph - 0.02 in   Overcast